| time (UTC) | temp F | wind direction | speed knots | gust knots | rain 1hr in | rain 24hr in | rain mn in | humidity % | barometer mb |
| 20260506014630 | 80 | 80 | 3.5 | 3.5 | 0.00 | 0.00 | 0.00 | 82 | 1007.8 |
| 20260506014125 | 80 | 134 | 1.7 | 2.6 | 0.00 | 0.00 | 0.00 | 82 | 1007.8 |
| 20260506013623 | 80 | 98 | 4.3 | 6.1 | 0.00 | 0.00 | 0.00 | 81 | 1007.7 |
| 20260506013119 | 80 | 162 | 1.7 | 1.7 | 0.00 | 0.00 | 0.00 | 81 | 1007.8 |
| 20260506012615 | 80 | 106 | 0.9 | 1.7 | 0.00 | 0.00 | 0.00 | 80 | 1007.8 |
| 20260506012112 | 80 | 163 | 1.7 | 2.6 | 0.00 | 0.00 | 0.00 | 80 | 1007.7 |
| 20260506011610 | 80 | 135 | 3.5 | 3.5 | 0.00 | 0.00 | 0.00 | 80 | 1007.6 |
| 20260506011106 | 81 | 175 | 3.5 | 5.2 | 0.00 | 0.00 | 0.00 | 79 | 1007.7 |
| 20260506010600 | 81 | 97 | 2.6 | 3.5 | 0.00 | 0.00 | 0.00 | 79 | 1007.9 |
| 20260506010056 | 81 | 122 | 3.5 | 5.2 | 0.00 | 0.00 | 0.00 | 79 | 1007.6 |
| 20260506005554 | 81 | 111 | 2.6 | 3.5 | 0.00 | 0.00 | 0.00 | 79 | 1007.8 |
| 20260506005049 | 81 | 128 | 5.2 | 6.1 | 0.00 | 0.00 | 0.00 | 78 | 1007.6 |
| 20260506004547 | 81 | 159 | 3.5 | 6.1 | 0.00 | 0.00 | 0.00 | 78 | 1007.5 |
| 20260506004043 | 82 | 129 | 3.5 | 3.5 | 0.00 | 0.00 | 0.00 | 78 | 1007.6 |
| 20260506003540 | 82 | 140 | 2.6 | 3.5 | 0.00 | 0.00 | 0.00 | 77 | 1007.7 |
| 20260506003036 | 82 | 164 | 3.5 | 6.1 | 0.00 | 0.00 | 0.00 | 77 | 1007.6 |
| 20260506002532 | 82 | 145 | 2.6 | 3.5 | 0.00 | 0.00 | 0.00 | 77 | 1007.7 |
| 20260506002028 | 82 | 167 | 7.8 | 8.7 | 0.00 | 0.00 | 0.00 | 77 | 1007.6 |
| 20260506001525 | 82 | 128 | 3.5 | 5.2 | 0.00 | 0.00 | 0.00 | 77 | 1007.6 |
| 20260506001022 | 82 | 125 | 2.6 | 2.6 | 0.00 | 0.00 | 0.00 | 77 | 1007.8 |
| 20260506000520 | 82 | 161 | 5.2 | 7.0 | 0.00 | 0.00 | 0.00 | 76 | 1007.7 |
| 20260506000017 | 82 | 159 | 6.1 | 7.8 | 0.00 | 0.00 | 0.00 | 76 | 1007.5 |
| 20260505235515 | 82 | 168 | 6.1 | 7.0 | 0.00 | 0.00 | 0.00 | 75 | 1007.7 |
| 20260505235011 | 82 | 182 | 3.5 | 5.2 | 0.00 | 0.00 | 0.00 | 76 | 1007.5 |
| 20260505234508 | 82 | 188 | 5.2 | 7.8 | 0.00 | 0.00 | 0.00 | 76 | 1007.6 |
| 20260505234005 | 82 | 170 | 5.2 | 6.1 | 0.00 | 0.00 | 0.00 | 75 | 1007.3 |
| 20260505233503 | 82 | 125 | 4.3 | 7.0 | 0.00 | 0.00 | 0.00 | 76 | 1007.3 |
| 20260505233000 | 82 | 138 | 7.0 | 7.8 | 0.00 | 0.00 | 0.00 | 75 | 1007.2 |
| 20260505232458 | 82 | 129 | 7.8 | 11.3 | 0.00 | 0.00 | 0.00 | 75 | 1007.1 |
| 20260505231954 | 83 | 72 | 3.5 | 5.2 | 0.00 | 0.00 | 0.00 | 75 | 1007.0 |
| 20260505231451 | 83 | 181 | 3.5 | 7.0 | 0.00 | 0.00 | 0.00 | 74 | 1007.3 |
| 20260505230949 | 83 | 183 | 6.1 | 7.0 | 0.00 | 0.00 | 0.00 | 73 | 1007.4 |
| 20260505230442 | 83 | 204 | 7.8 | 8.7 | 0.00 | 0.00 | 0.00 | 74 | 1007.2 |
| 20260505225938 | 83 | 169 | 6.1 | 8.7 | 0.00 | 0.00 | 0.00 | 75 | 1007.1 |
| 20260505225435 | 84 | 107 | 7.0 | 8.7 | 0.00 | 0.00 | 0.00 | 74 | 1007.1 |
| 20260505224931 | 83 | 197 | 3.5 | 3.5 | 0.00 | 0.00 | 0.00 | 73 | 1007.0 |
| 20260505224428 | 83 | 109 | 3.5 | 6.1 | 0.00 | 0.00 | 0.00 | 74 | 1007.1 |
| 20260505223925 | 83 | 150 | 3.5 | 3.5 | 0.00 | 0.00 | 0.00 | 73 | 1007.2 |
| 20260505223422 | 83 | 160 | 6.1 | 8.7 | 0.00 | 0.00 | 0.00 | 74 | 1007.1 |
| 20260505222918 | 83 | 185 | 7.0 | 7.8 | 0.00 | 0.00 | 0.00 | 74 | 1007.1 |
| 20260505222415 | 83 | 126 | 5.2 | 7.8 | 0.00 | 0.00 | 0.00 | 74 | 1006.9 |
| 20260505221910 | 83 | 166 | 6.1 | 8.7 | 0.00 | 0.00 | 0.00 | 74 | 1006.8 |
| 20260505221408 | 83 | 114 | 7.8 | 8.7 | 0.00 | 0.00 | 0.00 | 74 | 1007.2 |
| 20260505220905 | 83 | 101 | 7.0 | 8.7 | 0.00 | 0.00 | 0.00 | 74 | 1007.1 |
| 20260505220402 | 83 | 189 | 9.6 | 12.2 | 0.00 | 0.00 | 0.00 | 74 | 1007.2 |
| 20260505215900 | 84 | 142 | 7.8 | 9.6 | 0.00 | 0.00 | 0.00 | 71 | 1007.4 |
| 20260505215357 | 84 | 164 | 3.5 | 5.2 | 0.00 | 0.00 | 0.00 | 72 | 1007.4 |
| 20260505214855 | 84 | 201 | 7.8 | 7.8 | 0.00 | 0.00 | 0.00 | 71 | 1007.3 |
| 20260505214352 | 83 | 159 | 10.4 | 12.2 | 0.00 | 0.00 | 0.00 | 71 | 1007.6 |
| 20260505213849 | 83 | 174 | 8.7 | 8.7 | 0.00 | 0.00 | 0.00 | 72 | 1007.7 |
| 20260505213347 | 83 | 188 | 7.8 | 8.7 | 0.00 | 0.00 | 0.00 | 72 | 1007.4 |
| 20260505212843 | 83 | 207 | 7.8 | 9.6 | 0.00 | 0.00 | 0.00 | 72 | 1007.6 |
| 20260505212340 | 83 | 187 | 6.1 | 7.8 | 0.00 | 0.00 | 0.00 | 72 | 1007.6 |
| 20260505211836 | 83 | 172 | 9.6 | 11.3 | 0.00 | 0.00 | 0.00 | 72 | 1007.8 |
| 20260505211334 | 82 | 143 | 5.2 | 7.0 | 0.00 | 0.00 | 0.00 | 74 | 1007.9 |
| 20260505210830 | 82 | 183 | 9.6 | 12.2 | 0.00 | 0.00 | 0.00 | 74 | 1007.7 |
| 20260505210327 | 82 | 99 | 9.6 | 11.3 | 0.00 | 0.00 | 0.00 | 73 | 1007.8 |
| 20260505205824 | 82 | 101 | 7.0 | 9.6 | 0.00 | 0.00 | 0.00 | 75 | 1008.0 |
| 20260505205323 | 82 | 188 | 9.6 | 13.0 | 0.00 | 0.00 | 0.00 | 74 | 1008.1 |
| 20260505204819 | 82 | 147 | 10.4 | 12.2 | 0.00 | 0.00 | 0.00 | 74 | 1008.0 |
| 20260505204317 | 81 | 171 | 5.2 | 7.0 | 0.00 | 0.00 | 0.00 | 76 | 1007.9 |
| 20260505203814 | 81 | 142 | 9.6 | 11.3 | 0.00 | 0.00 | 0.00 | 75 | 1008.2 |
| 20260505203311 | 82 | 153 | 8.7 | 13.0 | 0.00 | 0.00 | 0.00 | 76 | 1008.2 |
| 20260505202807 | 82 | 115 | 5.2 | 7.8 | 0.00 | 0.00 | 0.00 | 75 | 1008.5 |
| 20260505202306 | 81 | 114 | 6.1 | 12.2 | 0.00 | 0.00 | 0.00 | 76 | 1008.4 |
| 20260505201800 | 82 | 194 | 8.7 | 9.6 | 0.00 | 0.00 | 0.00 | 76 | 1008.7 |
| 20260505201257 | 82 | 90 | 6.1 | 8.7 | 0.00 | 0.00 | 0.00 | 75 | 1008.8 |
| 20260505200756 | 82 | 146 | 7.0 | 8.7 | 0.00 | 0.00 | 0.00 | 76 | 1008.7 |
| 20260505200252 | 81 | 169 | 6.1 | 7.8 | 0.00 | 0.00 | 0.00 | 76 | 1008.5 |
| 20260505195747 | 82 | 180 | 7.8 | 13.9 | 0.00 | 0.00 | 0.00 | 74 | 1008.9 |
| 20260505195245 | 82 | 232 | 7.8 | 9.6 | 0.00 | 0.00 | 0.00 | 76 | 1009.0 |
| 20260505194742 | 81 | 153 | 7.0 | 8.7 | 0.00 | 0.00 | 0.00 | 77 | 1008.9 |
| 20260505194239 | 81 | 130 | 4.3 | 7.0 | 0.00 | 0.00 | 0.00 | 77 | 1009.2 |
| 20260505193734 | 81 | 199 | 8.7 | 8.7 | 0.00 | 0.00 | 0.00 | 76 | 1009.4 |
| 20260505193232 | 80 | 139 | 7.0 | 8.7 | 0.00 | 0.00 | 0.00 | 77 | 1009.4 |
| 20260505192730 | 80 | 204 | 8.7 | 11.3 | 0.00 | 0.00 | 0.00 | 77 | 1009.1 |
| 20260505192228 | 80 | 156 | 7.0 | 9.6 | 0.00 | 0.00 | 0.00 | 78 | 1009.2 |
| 20260505191726 | 79 | 201 | 7.8 | 8.7 | 0.00 | 0.00 | 0.00 | 79 | 1009.2 |
| 20260505191224 | 79 | 190 | 9.6 | 11.3 | 0.00 | 0.00 | 0.00 | 78 | 1009.5 |
| 20260505190720 | 79 | 175 | 4.3 | 5.2 | 0.00 | 0.00 | 0.00 | 80 | 1009.4 |
| 20260505190220 | 78 | 162 | 4.3 | 6.1 | 0.00 | 0.00 | 0.00 | 79 | 1009.5 |
| 20260505185716 | 79 | 155 | 2.6 | 3.5 | 0.00 | 0.00 | 0.00 | 79 | 1009.4 |
| 20260505185213 | 78 | 199 | 4.3 | 6.1 | 0.00 | 0.00 | 0.00 | 80 | 1009.6 |
| 20260505184709 | 78 | 184 | 7.8 | 8.7 | 0.00 | 0.00 | 0.00 | 79 | 1009.7 |
| 20260505184207 | 78 | 199 | 2.6 | 5.2 | 0.00 | 0.00 | 0.00 | 81 | 1009.8 |
| 20260505183703 | 78 | 124 | 2.6 | 3.5 | 0.00 | 0.00 | 0.00 | 81 | 1009.7 |
| 20260505183201 | 78 | 199 | 7.0 | 9.6 | 0.00 | 0.00 | 0.00 | 81 | 1009.6 |
| 20260505182656 | 78 | 205 | 7.8 | 11.3 | 0.00 | 0.00 | 0.00 | 81 | 1009.9 |
| 20260505182154 | 78 | 211 | 7.0 | 8.7 | 0.00 | 0.00 | 0.00 | 81 | 1009.8 |
| 20260505181650 | 78 | 192 | 8.7 | 11.3 | 0.00 | 0.00 | 0.00 | 81 | 1009.9 |
| 20260505181148 | 77 | 148 | 4.3 | 5.2 | 0.00 | 0.00 | 0.00 | 82 | 1010.0 |
| 20260505180644 | 77 | 204 | 3.5 | 5.2 | 0.00 | 0.00 | 0.00 | 82 | 1010.1 |
| 20260505180142 | 77 | 191 | 5.2 | 7.0 | 0.00 | 0.00 | 0.00 | 82 | 1010.2 |
| 20260505175637 | 77 | 185 | 5.2 | 7.8 | 0.00 | 0.00 | 0.00 | 83 | 1010.2 |
| 20260505175134 | 77 | 184 | 3.5 | 3.5 | 0.00 | 0.00 | 0.00 | 83 | 1010.3 |
| 20260505174631 | 77 | 111 | 3.5 | 3.5 | 0.00 | 0.00 | 0.00 | 83 | 1010.4 |
| 20260505174127 | 76 | 192 | 4.3 | 7.8 | 0.00 | 0.00 | 0.00 | 83 | 1010.2 |
| 20260505173624 | 76 | 175 | 5.2 | 7.0 | 0.00 | 0.00 | 0.00 | 84 | 1010.4 |
| 20260505173120 | 75 | 194 | 7.0 | 11.3 | 0.00 | 0.00 | 0.00 | 84 | 1010.4 |
| 20260505172618 | 75 | 192 | 7.8 | 8.7 | 0.00 | 0.00 | 0.00 | 85 | 1010.4 |
| 20260505172114 | 75 | 164 | 7.0 | 9.6 | 0.00 | 0.00 | 0.00 | 85 | 1010.5 |
| 20260505171609 | 75 | 215 | 7.0 | 7.8 | 0.00 | 0.00 | 0.00 | 86 | 1010.4 |
| 20260505171107 | 75 | 196 | 9.6 | 11.3 | 0.00 | 0.00 | 0.00 | 86 | 1010.6 |
| 20260505170603 | 75 | 221 | 8.7 | 8.7 | 0.00 | 0.00 | 0.00 | 86 | 1010.6 |
| 20260505170100 | 75 | 182 | 7.8 | 11.3 | 0.00 | 0.00 | 0.00 | 86 | 1010.5 |
| 20260505165554 | 74 | 179 | 10.4 | 12.2 | 0.00 | 0.00 | 0.00 | 87 | 1010.4 |
| 20260505165050 | 74 | 185 | 9.6 | 12.2 | 0.00 | 0.00 | 0.00 | 87 | 1010.5 |
| 20260505164541 | 74 | 202 | 5.2 | 7.8 | 0.00 | 0.00 | 0.00 | 88 | 1010.4 |
| 20260505164039 | 73 | 159 | 3.5 | 5.2 | 0.00 | 0.00 | 0.00 | 89 | 1010.5 |
| 20260505163537 | 73 | 186 | 5.2 | 6.1 | 0.00 | 0.00 | 0.00 | 89 | 1010.6 |
| 20260505163033 | 73 | 199 | 7.8 | 8.7 | 0.00 | 0.00 | 0.00 | 90 | 1010.4 |
| 20260505162526 | 73 | 185 | 5.2 | 7.0 | 0.00 | 0.00 | 0.00 | 90 | 1010.4 |
| 20260505162024 | 73 | 199 | 3.5 | 5.2 | 0.00 | 0.00 | 0.00 | 90 | 1010.3 |
| 20260505161520 | 73 | 194 | 9.6 | 11.3 | 0.00 | 0.00 | 0.00 | 90 | 1010.2 |
| 20260505161017 | 73 | 220 | 5.2 | 7.0 | 0.00 | 0.00 | 0.00 | 90 | 1010.5 |
| 20260505160515 | 72 | 150 | 5.2 | 7.0 | 0.00 | 0.00 | 0.00 | 91 | 1010.5 |
| 20260505152952 | 72 | 185 | 5.2 | 7.8 | 0.00 | 0.00 | 0.00 | 91 | 1010.6 |
| 20260505152449 | 72 | 195 | 5.2 | 7.0 | 0.00 | 0.00 | 0.00 | 91 | 1010.6 |
| 20260505151944 | 72 | 169 | 3.5 | 6.1 | 0.00 | 0.00 | 0.00 | 91 | 1010.5 |
| 20260505151440 | 72 | 153 | 5.2 | 7.0 | 0.00 | 0.00 | 0.00 | 91 | 1010.6 |
| 20260505150937 | 72 | 204 | 5.2 | 7.0 | 0.00 | 0.00 | 0.00 | 91 | 1010.5 |
| 20260505150434 | 72 | 150 | 5.2 | 6.1 | 0.00 | 0.00 | 0.00 | 92 | 1010.4 |
| 20260505140404 | 71 | 201 | 7.8 | 8.7 | 0.00 | 0.00 | 0.00 | 92 | 1010.0 |
| 20260505124818 | 70 | 155 | 7.0 | 7.8 | 0.00 | 0.00 | 0.00 | 92 | 1009.3 |
| 20260505124315 | 70 | 203 | 10.4 | 13.0 | 0.00 | 0.00 | 0.00 | 92 | 1009.2 |
| 20260505123810 | 70 | 218 | 7.0 | 8.7 | 0.00 | 0.00 | 0.00 | 92 | 1009.1 |
| 20260505123308 | 70 | 131 | 7.8 | 12.2 | 0.00 | 0.00 | 0.00 | 92 | 1009.0 |
| 20260505122803 | 70 | 202 | 9.6 | 12.2 | 0.00 | 0.00 | 0.00 | 92 | 1009.1 |
| 20260505122301 | 70 | 154 | 5.2 | 6.1 | 0.00 | 0.00 | 0.00 | 92 | 1008.9 |
| 20260505121757 | 70 | 176 | 9.6 | 11.3 | 0.00 | 0.00 | 0.00 | 92 | 1009.0 |
| 20260505121254 | 70 | 168 | 5.2 | 7.0 | 0.00 | 0.00 | 0.00 | 92 | 1008.9 |
| 20260505120750 | 70 | 190 | 12.2 | 13.9 | 0.00 | 0.00 | 0.00 | 92 | 1008.8 |
| 20260505120247 | 70 | 179 | 7.8 | 8.7 | 0.00 | 0.00 | 0.00 | 92 | 1008.4 |
| 20260505115745 | 70 | 183 | 11.3 | 13.9 | 0.00 | 0.00 | 0.00 | 91 | 1008.3 |
| 20260505115243 | 70 | 199 | 6.1 | 7.8 | 0.00 | 0.00 | 0.00 | 92 | 1008.4 |
| 20260505114740 | 70 | 188 | 7.0 | 9.6 | 0.00 | 0.00 | 0.00 | 92 | 1008.4 |
| 20260505114236 | 70 | 203 | 8.7 | 13.0 | 0.00 | 0.00 | 0.00 | 91 | 1008.7 |
| 20260505113733 | 70 | 189 | 7.0 | 7.8 | 0.00 | 0.00 | 0.00 | 91 | 1008.4 |
| 20260505113230 | 70 | 154 | 5.2 | 7.0 | 0.00 | 0.00 | 0.00 | 91 | 1008.9 |
| 20260505112726 | 70 | 217 | 8.7 | 13.0 | 0.00 | 0.00 | 0.00 | 91 | 1008.7 |
| 20260505112224 | 70 | 208 | 6.1 | 7.8 | 0.00 | 0.00 | 0.00 | 91 | 1008.4 |
| 20260505111723 | 70 | 199 | 7.8 | 9.6 | 0.00 | 0.00 | 0.00 | 91 | 1008.4 |
| 20260505111220 | 70 | 206 | 7.0 | 9.6 | 0.00 | 0.00 | 0.00 | 91 | 1008.5 |
| 20260505110715 | 70 | 165 | 7.8 | 11.3 | 0.00 | 0.00 | 0.00 | 91 | 1008.4 |
| 20260505110213 | 70 | 193 | 7.8 | 9.6 | 0.00 | 0.00 | 0.00 | 91 | 1008.7 |
| 20260505102149 | 70 | 166 | 5.2 | 6.1 | 0.00 | 0.00 | 0.00 | 90 | 1008.7 |
| 20260505101647 | 70 | 172 | 9.6 | 13.0 | 0.00 | 0.00 | 0.00 | 90 | 1009.2 |
| 20260505101143 | 70 | 182 | 5.2 | 9.6 | 0.00 | 0.00 | 0.00 | 90 | 1008.9 |
| 20260505100639 | 70 | 117 | 6.1 | 7.8 | 0.00 | 0.00 | 0.00 | 90 | 1009.2 |
| 20260505100137 | 70 | 158 | 6.1 | 7.0 | 0.00 | 0.00 | 0.00 | 89 | 1009.2 |
| 20260505095632 | 70 | 220 | 9.6 | 11.3 | 0.00 | 0.00 | 0.00 | 89 | 1009.1 |
| 20260505095130 | 70 | 185 | 4.3 | 5.2 | 0.00 | 0.00 | 0.00 | 89 | 1008.9 |
| 20260505094626 | 70 | 225 | 7.0 | 8.7 | 0.00 | 0.00 | 0.00 | 89 | 1008.9 |
| 20260505094122 | 70 | 213 | 5.2 | 7.0 | 0.00 | 0.00 | 0.00 | 89 | 1008.9 |
| 20260505093619 | 70 | 191 | 6.1 | 9.6 | 0.00 | 0.00 | 0.00 | 89 | 1009.1 |
| 20260505093116 | 70 | 201 | 4.3 | 7.8 | 0.00 | 0.00 | 0.00 | 89 | 1009.2 |
| 20260505092613 | 70 | 183 | 5.2 | 6.1 | 0.00 | 0.00 | 0.00 | 89 | 1009.2 |
| 20260505092112 | 70 | 160 | 5.2 | 5.2 | 0.00 | 0.00 | 0.00 | 89 | 1008.9 |
| 20260505091608 | 70 | 178 | 7.8 | 9.6 | 0.00 | 0.00 | 0.00 | 89 | 1009.2 |
| 20260505091106 | 70 | 184 | 3.5 | 5.2 | 0.00 | 0.00 | 0.00 | 89 | 1009.3 |
| 20260505090604 | 70 | 182 | 7.0 | 7.8 | 0.00 | 0.00 | 0.00 | 89 | 1009.4 |
| 20260505085559 | 70 | 180 | 7.0 | 7.8 | 0.00 | 0.00 | 0.00 | 90 | 1009.3 |
| 20260505085057 | 70 | 166 | 7.8 | 12.2 | 0.00 | 0.00 | 0.00 | 90 | 1009.1 |
| 20260505084555 | 70 | 187 | 7.0 | 8.7 | 0.00 | 0.00 | 0.00 | 90 | 1009.2 |
| 20260505084053 | 70 | 155 | 7.8 | 11.3 | 0.00 | 0.00 | 0.00 | 90 | 1009.4 |
| 20260505083550 | 70 | 201 | 5.2 | 6.1 | 0.00 | 0.00 | 0.00 | 90 | 1009.1 |
| 20260505083046 | 70 | 188 | 4.3 | 6.1 | 0.00 | 0.00 | 0.00 | 90 | 1009.3 |
| 20260505082542 | 70 | 192 | 11.3 | 13.0 | 0.00 | 0.00 | 0.00 | 90 | 1009.5 |
| 20260505082039 | 70 | 193 | 9.6 | 13.9 | 0.00 | 0.00 | 0.00 | 90 | 1009.5 |
| 20260505081536 | 70 | 163 | 11.3 | 13.9 | 0.00 | 0.00 | 0.00 | 90 | 1009.5 |
| 20260505081033 | 70 | 184 | 6.1 | 7.0 | 0.00 | 0.00 | 0.00 | 89 | 1009.5 |
| 20260505080529 | 71 | 191 | 6.1 | 7.0 | 0.00 | 0.00 | 0.00 | 89 | 1009.5 |
| 20260505080026 | 71 | 170 | 5.2 | 7.8 | 0.00 | 0.00 | 0.00 | 89 | 1009.6 |
| 20260505075522 | 71 | 199 | 7.8 | 9.6 | 0.00 | 0.00 | 0.00 | 89 | 1009.5 |
| 20260505075019 | 71 | 197 | 5.2 | 6.1 | 0.00 | 0.00 | 0.00 | 89 | 1009.7 |
| 20260505074516 | 71 | 178 | 4.3 | 6.1 | 0.00 | 0.00 | 0.00 | 89 | 1010.0 |
| 20260505074013 | 71 | 213 | 3.5 | 6.1 | 0.00 | 0.00 | 0.00 | 89 | 1009.9 |
| 20260505073510 | 71 | 174 | 6.1 | 8.7 | 0.00 | 0.00 | 0.00 | 89 | 1009.9 |
| 20260505073009 | 71 | 159 | 4.3 | 6.1 | 0.00 | 0.00 | 0.00 | 88 | 1009.9 |
| 20260505072504 | 71 | 172 | 7.8 | 7.8 | 0.00 | 0.00 | 0.00 | 88 | 1010.1 |
| 20260505072000 | 71 | 172 | 7.8 | 11.3 | 0.00 | 0.00 | 0.00 | 88 | 1010.2 |
| 20260505071456 | 71 | 207 | 6.1 | 7.0 | 0.00 | 0.00 | 0.00 | 88 | 1010.3 |
| 20260505070954 | 71 | 148 | 3.5 | 6.1 | 0.00 | 0.00 | 0.00 | 88 | 1010.3 |
| 20260505070451 | 71 | 163 | 4.3 | 6.1 | 0.00 | 0.00 | 0.00 | 88 | 1010.4 |
| 20260505065946 | 71 | 161 | 11.3 | 13.0 | 0.00 | 0.00 | 0.00 | 88 | 1010.3 |
| 20260505065443 | 71 | 161 | 6.1 | 7.8 | 0.00 | 0.00 | 0.00 | 88 | 1010.3 |
| 20260505064940 | 71 | 176 | 9.6 | 11.3 | 0.00 | 0.00 | 0.00 | 88 | 1010.3 |
| 20260505064437 | 71 | 202 | 3.5 | 5.2 | 0.00 | 0.00 | 0.00 | 88 | 1010.5 |
| 20260505063935 | 71 | 179 | 10.4 | 12.2 | 0.00 | 0.00 | 0.00 | 88 | 1010.5 |
| 20260505063431 | 71 | 222 | 11.3 | 14.8 | 0.00 | 0.00 | 0.00 | 88 | 1010.6 |
| 20260505062928 | 71 | 167 | 9.6 | 13.9 | 0.00 | 0.00 | 0.00 | 88 | 1010.7 |
| 20260505062425 | 71 | 158 | 5.2 | 7.0 | 0.00 | 0.00 | 0.00 | 88 | 1010.9 |
| 20260505061921 | 71 | 195 | 8.7 | 12.2 | 0.00 | 0.00 | 0.00 | 88 | 1010.9 |
| 20260505061420 | 71 | 201 | 7.0 | 9.6 | 0.00 | 0.00 | 0.00 | 88 | 1010.7 |
| 20260505060917 | 71 | 176 | 8.7 | 12.2 | 0.00 | 0.00 | 0.00 | 87 | 1010.9 |
| 20260505060414 | 71 | 151 | 4.3 | 5.2 | 0.00 | 0.00 | 0.00 | 87 | 1010.7 |
| 20260505055910 | 71 | 150 | 10.4 | 13.9 | 0.00 | 0.00 | 0.00 | 87 | 1010.8 |
| 20260505055407 | 71 | 184 | 8.7 | 11.3 | 0.00 | 0.00 | 0.00 | 87 | 1010.8 |
| 20260505054903 | 71 | 174 | 8.7 | 9.6 | 0.00 | 0.00 | 0.00 | 87 | 1010.9 |
| 20260505054401 | 71 | 164 | 10.4 | 13.0 | 0.00 | 0.00 | 0.00 | 87 | 1010.9 |
| 20260505053859 | 71 | 157 | 6.1 | 7.0 | 0.00 | 0.00 | 0.00 | 87 | 1011.0 |
| 20260505053356 | 71 | 134 | 6.1 | 7.8 | 0.00 | 0.00 | 0.00 | 87 | 1010.7 |
| 20260505052852 | 71 | 191 | 9.6 | 13.9 | 0.00 | 0.00 | 0.00 | 87 | 1010.7 |
| 20260505052349 | 71 | 160 | 3.5 | 6.1 | 0.00 | 0.00 | 0.00 | 87 | 1010.9 |
| 20260505051846 | 71 | 135 | 5.2 | 7.0 | 0.00 | 0.00 | 0.00 | 87 | 1010.9 |
| 20260505051343 | 71 | 169 | 7.8 | 11.3 | 0.00 | 0.00 | 0.00 | 87 | 1010.9 |
| 20260505050842 | 71 | 185 | 8.7 | 11.3 | 0.00 | 0.00 | 0.00 | 87 | 1010.7 |
| 20260505050340 | 71 | 158 | 7.0 | 11.3 | 0.00 | 0.00 | 0.00 | 86 | 1010.7 |
| 20260505041307 | 73 | 168 | 5.2 | 7.0 | 0.00 | 0.00 | 0.00 | 83 | 1010.5 |
| 20260505040804 | 73 | 193 | 12.2 | 13.0 | 0.00 | 0.00 | 0.00 | 83 | 1010.8 |
| 20260505040302 | 73 | 126 | 6.1 | 8.7 | 0.00 | 0.00 | 0.00 | 83 | 1010.5 |
| 20260505035758 | 73 | 201 | 12.2 | 13.9 | 0.00 | 0.00 | 0.00 | 83 | 1010.9 |
| 20260505035254 | 73 | 112 | 10.4 | 14.8 | 0.00 | 0.00 | 0.00 | 82 | 1010.8 |
| 20260505034751 | 73 | 157 | 8.7 | 13.9 | 0.00 | 0.00 | 0.00 | 83 | 1010.8 |
| 20260505034248 | 74 | 183 | 5.2 | 7.8 | 0.00 | 0.00 | 0.00 | 82 | 1010.9 |
| 20260505033744 | 74 | 143 | 8.7 | 12.2 | 0.00 | 0.00 | 0.00 | 82 | 1010.7 |
| 20260505033242 | 74 | 133 | 4.3 | 6.1 | 0.00 | 0.00 | 0.00 | 82 | 1010.8 |
| 20260505032740 | 74 | 173 | 8.7 | 12.2 | 0.00 | 0.00 | 0.00 | 81 | 1010.4 |
| 20260505032236 | 74 | 154 | 5.2 | 7.0 | 0.00 | 0.00 | 0.00 | 81 | 1010.7 |
| 20260505031733 | 74 | 144 | 7.8 | 9.6 | 0.00 | 0.00 | 0.00 | 81 | 1010.6 |
| 20260505031229 | 74 | 132 | 9.6 | 13.0 | 0.00 | 0.00 | 0.00 | 80 | 1010.7 |
| 20260505030727 | 74 | 147 | 1.7 | 3.5 | 0.00 | 0.00 | 0.00 | 80 | 1010.7 |
| 20260505030223 | 74 | 186 | 2.6 | 2.6 | 0.00 | 0.00 | 0.00 | 80 | 1010.9 |
| 20260505025718 | 75 | 150 | 6.1 | 7.8 | 0.00 | 0.00 | 0.00 | 79 | 1010.7 |
| 20260505025217 | 75 | 180 | 5.2 | 7.0 | 0.00 | 0.00 | 0.00 | 79 | 1010.5 |
| 20260505024715 | 75 | 154 | 4.3 | 7.0 | 0.00 | 0.00 | 0.00 | 79 | 1010.7 |
| 20260505024212 | 75 | 153 | 8.7 | 9.6 | 0.00 | 0.00 | 0.00 | 78 | 1010.5 |
| 20260505023709 | 75 | 165 | 7.8 | 9.6 | 0.00 | 0.00 | 0.00 | 78 | 1010.9 |
| 20260505023206 | 75 | 170 | 7.8 | 8.7 | 0.00 | 0.00 | 0.00 | 77 | 1010.5 |
| 20260505022704 | 75 | 136 | 3.5 | 5.2 | 0.00 | 0.00 | 0.00 | 77 | 1010.5 |
| 20260505022200 | 76 | 185 | 5.2 | 7.0 | 0.00 | 0.00 | 0.00 | 76 | 1010.5 |
| 20260505021657 | 76 | 171 | 10.4 | 13.0 | 0.00 | 0.00 | 0.00 | 76 | 1010.5 |
| 20260505021154 | 76 | 170 | 7.0 | 9.6 | 0.00 | 0.00 | 0.00 | 75 | 1010.5 |
| 20260505020650 | 76 | 178 | 7.8 | 11.3 | 0.00 | 0.00 | 0.00 | 75 | 1010.5 |
| 20260505020145 | 76 | 132 | 5.2 | 7.8 | 0.00 | 0.00 | 0.00 | 74 | 1010.5 |
| 20260505015643 | 76 | 112 | 5.2 | 7.8 | 0.00 | 0.00 | 0.00 | 73 | 1010.4 |
| 20260505015139 | 76 | 173 | 7.8 | 9.6 | 0.00 | 0.00 | 0.00 | 73 | 1010.4 |